Weather History for Sturgeon Bay, WI

Change the Weather History Date:

Sunday, August 25, 2013

  Actual Average Record
Temperature  
Mean Temperature 78 °F -  
Max Temperature 89 °F 76 °F 93 °F (1925)
Min Temperature 68 °F 56 °F 39 °F (1934)
Cooling Degree Days 14    
Growing Degree Days 28 (Base 50)    
Moisture  
Dew Point 66 °F    
Average Humidity 66    
Maximum Humidity 78    
Minimum Humidity 55    
Precipitation  
Precipitation 0.00 in - - ()
Sea Level Pressure  
Sea Level Pressure 30.08 in    
Wind  
Wind Speed 14 mph (SSW)    
Max Wind Speed 22 mph    
Max Gust Speed 30 mph    
Visibility 10 miles    
Events      
Averages and records for this station are not official NWS values.
T = Trace of Precipitation, MM = Missing Value Source: NWS Daily Summary

Daily Weather History Graph

Daily Weather History Graph

Search for Another Location

Airport:

Trip Planner

Search our weather history database for the weather conditions in past years. The results will help you decide how hot, cold, wet, or windy it might be!

Date:

Astronomy

Aug. 25, 2013 Rise Set
Actual Time 6:03 AM CDT 7:38 PM CDT
Civil Twilight 5:33 AM CDT 8:09 PM CDT
Nautical Twilight 4:55 AM CDT 8:46 PM CDT
Astronomical Twilight 4:15 AM CDT 9:26 PM CDT
Moon 9:53 PM CDT (8/25) 11:21 AM CDT (8/25)
Length of Visible Light 14h 36m
Length of Day
13h 34m
Waning Gibbous, 75% of the Moon is Illuminated
Aug 25
Waning Gibbous
Aug 28
Last Quarter
Sep 5
New
Sep 12
First Quarter
Sep 19
Full

Hourly Weather History & Observations

Time (CDT) Temp. Heat Index Dew Point Humidity Pressure Visibility Wind Dir Wind Speed Gust Speed Precip Events Conditions
12:15 AM 69.8 °F - 59.0 °F 68% 30.16 in 10.0 mi South 13.8 mph 19.6 mph N/A   Clear
12:35 AM 69.8 °F - 60.8 °F 73% 30.16 in 10.0 mi South 13.8 mph - N/A   Clear
12:55 AM 68.0 °F - 60.8 °F 78% 30.15 in 10.0 mi South 12.7 mph - N/A   Clear
1:15 AM 68.0 °F - 60.8 °F 78% 30.15 in 10.0 mi South 11.5 mph - N/A   Clear
1:35 AM 69.8 °F - 60.8 °F 73% 30.14 in 10.0 mi South 12.7 mph 17.3 mph N/A   Clear
1:55 AM 69.8 °F - 60.8 °F 73% 30.14 in 10.0 mi South 10.4 mph 16.1 mph N/A   Clear
2:15 AM 69.8 °F - 60.8 °F 73% 30.14 in 10.0 mi SSW 10.4 mph - N/A   Clear
2:35 AM 69.8 °F - 60.8 °F 73% 30.14 in 10.0 mi South 10.4 mph - N/A   Scattered Clouds
2:55 AM 69.8 °F - 60.8 °F 73% 30.15 in 10.0 mi SSW 10.4 mph - N/A   Scattered Clouds
3:15 AM 69.8 °F - 60.8 °F 73% 30.15 in 10.0 mi South 12.7 mph 16.1 mph N/A   Scattered Clouds
3:35 AM 69.8 °F - 60.8 °F 73% 30.15 in 10.0 mi SSW 12.7 mph - N/A   Clear
3:55 AM 69.8 °F - 60.8 °F 73% 30.15 in 10.0 mi South 12.7 mph - N/A   Clear
4:15 AM 69.8 °F - 60.8 °F 73% 30.14 in 10.0 mi SSW 11.5 mph - N/A   Clear
4:35 AM 69.8 °F - 60.8 °F 73% 30.14 in 10.0 mi SSW 11.5 mph 19.6 mph N/A   Clear
4:55 AM 69.8 °F - 60.8 °F 73% 30.14 in 10.0 mi SSW 12.7 mph - N/A   Clear
5:15 AM 69.8 °F - 60.8 °F 73% 30.14 in 10.0 mi SSW 11.5 mph - N/A   Clear
5:35 AM 69.8 °F - 60.8 °F 73% 30.14 in 10.0 mi SSW 12.7 mph 16.1 mph N/A   Mostly Cloudy
5:55 AM 69.8 °F - 60.8 °F 73% 30.15 in 10.0 mi SSW 12.7 mph - N/A   Overcast
6:15 AM 69.8 °F - 60.8 °F 73% 30.14 in 10.0 mi SSW 12.7 mph - N/A   Mostly Cloudy
6:35 AM 69.8 °F - 60.8 °F 73% 30.14 in 10.0 mi SSW 12.7 mph 17.3 mph N/A   Clear
6:55 AM 69.8 °F - 60.8 °F 73% 30.14 in 10.0 mi SSW 10.4 mph - N/A   Clear
7:15 AM 69.8 °F - 60.8 °F 73% 30.14 in 10.0 mi SSW 12.7 mph - N/A   Clear
7:35 AM 71.6 °F - 60.8 °F 69% 30.14 in 10.0 mi SSW 15.0 mph - N/A   Clear
7:55 AM 71.6 °F - 60.8 °F 69% 30.13 in 10.0 mi SSW 13.8 mph - N/A   Clear
8:15 AM 73.4 °F - 62.6 °F 69% 30.13 in 10.0 mi SW 12.7 mph 20.7 mph N/A   Clear
8:35 AM 73.4 °F - 62.6 °F 69% 30.12 in 10.0 mi SW 19.6 mph 27.6 mph N/A   Clear
8:55 AM 75.2 °F - 64.4 °F 69% 30.12 in 10.0 mi SW 15.0 mph 19.6 mph N/A   Clear
9:15 AM 77.0 °F - 64.4 °F 65% 30.11 in 10.0 mi SW 16.1 mph 23.0 mph N/A   Clear
9:35 AM 78.8 °F - 66.2 °F 65% 30.11 in 10.0 mi SW 16.1 mph 23.0 mph N/A   Clear
9:55 AM 78.8 °F - 66.2 °F 65% 30.10 in 10.0 mi SW 16.1 mph 25.3 mph N/A   Clear
10:15 AM 80.6 °F 82.7 °F 66.2 °F 61% 30.10 in 10.0 mi SW 12.7 mph 19.6 mph N/A   Clear
10:35 AM 80.6 °F 82.7 °F 66.2 °F 61% 30.10 in 10.0 mi SW 15.0 mph 27.6 mph N/A   Clear
10:55 AM 82.4 °F 85.4 °F 68.0 °F 62% 30.09 in 10.0 mi SW 13.8 mph 24.2 mph N/A   Clear
11:15 AM 82.4 °F 84.6 °F 66.2 °F 58% 30.08 in 10.0 mi SW 16.1 mph 28.8 mph N/A   Clear
11:35 AM 82.4 °F 85.4 °F 68.0 °F 62% 30.08 in 10.0 mi SW 17.3 mph 25.3 mph N/A   Clear
11:55 AM 84.2 °F 88.4 °F 69.8 °F 62% 30.07 in 10.0 mi SW 21.9 mph 26.5 mph N/A   Clear
12:15 PM 84.2 °F 88.4 °F 69.8 °F 62% 30.07 in 10.0 mi SW 20.7 mph 29.9 mph N/A   Clear
12:35 PM 84.2 °F 88.4 °F 69.8 °F 62% 30.06 in 10.0 mi WSW 18.4 mph - N/A   Clear
12:55 PM 86.0 °F 90.4 °F 69.8 °F 58% 30.06 in 10.0 mi SW 17.3 mph 23.0 mph N/A   Clear
1:15 PM 86.0 °F 90.4 °F 69.8 °F 58% 30.06 in 10.0 mi SW 19.6 mph 25.3 mph N/A   Clear
1:35 PM 87.8 °F 92.6 °F 69.8 °F 55% 30.05 in 10.0 mi WSW 18.4 mph - N/A   Clear
1:55 PM 87.8 °F 93.8 °F 71.6 °F 58% 30.05 in 10.0 mi WSW 15.0 mph - N/A   Clear
2:15 PM 87.8 °F 93.8 °F 71.6 °F 58% 30.04 in 10.0 mi WSW 12.7 mph - N/A   Clear
2:35 PM 87.8 °F 93.8 °F 71.6 °F 58% 30.03 in 10.0 mi SW 11.5 mph 18.4 mph N/A   Clear
2:55 PM 89.6 °F 96.2 °F 71.6 °F 55% 30.02 in 10.0 mi WSW 17.3 mph 24.2 mph N/A   Clear
3:15 PM 89.6 °F 96.2 °F 71.6 °F 55% 30.02 in 10.0 mi SW 17.3 mph 20.7 mph N/A   Clear
3:35 PM 89.6 °F 96.2 °F 71.6 °F 55% 30.02 in 10.0 mi SSW 16.1 mph 20.7 mph N/A   Clear
3:55 PM 89.6 °F 96.2 °F 71.6 °F 55% 30.02 in 10.0 mi SW 16.1 mph 20.7 mph N/A   Clear
4:15 PM 89.6 °F 96.2 °F 71.6 °F 55% 30.01 in 10.0 mi SW 16.1 mph 23.0 mph N/A   Clear
4:35 PM 89.6 °F 96.2 °F 71.6 °F 55% 30.01 in 10.0 mi SSW 16.1 mph 21.9 mph N/A   Clear
4:55 PM 87.8 °F 93.8 °F 71.6 °F 58% 30.01 in 10.0 mi SSW 15.0 mph 20.7 mph N/A   Clear
5:15 PM 87.8 °F 93.8 °F 71.6 °F 58% 30.01 in 10.0 mi SW 17.3 mph - N/A   Clear
5:35 PM 87.8 °F 93.8 °F 71.6 °F 58% 30.02 in 10.0 mi SW 13.8 mph 19.6 mph N/A   Clear
5:55 PM 87.8 °F 92.6 °F 69.8 °F 55% 30.02 in 10.0 mi SSW 15.0 mph 20.7 mph N/A   Clear
6:15 PM 87.8 °F 92.6 °F 69.8 °F 55% 30.01 in 10.0 mi SSW 13.8 mph 19.6 mph N/A   Clear
6:35 PM 86.0 °F 90.4 °F 69.8 °F 58% 30.01 in 10.0 mi SSW 11.5 mph 19.6 mph N/A   Clear
6:55 PM 84.2 °F 88.4 °F 69.8 °F 62% 30.01 in 10.0 mi SSW 10.4 mph 19.6 mph N/A   Clear
7:15 PM 84.2 °F 88.4 °F 69.8 °F 62% 30.02 in 10.0 mi SSW 11.5 mph - N/A   Clear
7:35 PM 82.4 °F 86.3 °F 69.8 °F 66% 30.02 in 10.0 mi SSW 10.4 mph - N/A   Clear
7:55 PM 82.4 °F 86.3 °F 69.8 °F 66% 30.02 in 10.0 mi SSW 10.4 mph - N/A   Clear
8:15 PM 80.6 °F 83.9 °F 69.8 °F 70% 30.03 in 10.0 mi SSW 11.5 mph - N/A   Clear
8:35 PM 80.6 °F 83.9 °F 69.8 °F 70% 30.03 in 10.0 mi SSW 11.5 mph 16.1 mph N/A   Clear
8:55 PM 80.6 °F 83.9 °F 69.8 °F 70% 30.03 in 10.0 mi SSW 11.5 mph - N/A   Clear
9:15 PM 80.6 °F 83.9 °F 69.8 °F 70% 30.03 in 10.0 mi SSW 11.5 mph - N/A   Clear
9:35 PM 80.6 °F 83.9 °F 69.8 °F 70% 30.03 in 10.0 mi SSW 12.7 mph - N/A   Clear
9:55 PM 80.6 °F 83.9 °F 69.8 °F 70% 30.03 in 10.0 mi SSW 12.7 mph 18.4 mph N/A   Clear
10:15 PM 78.8 °F - 69.8 °F 74% 30.03 in 10.0 mi SW 13.8 mph 17.3 mph N/A   Clear
10:35 PM 78.8 °F - 69.8 °F 74% 30.04 in 10.0 mi SSW 10.4 mph - N/A   Clear
10:55 PM 78.8 °F - 69.8 °F 74% 30.03 in 10.0 mi SW 13.8 mph 17.3 mph N/A   Clear
11:15 PM 78.8 °F - 69.8 °F 74% 30.03 in 10.0 mi SW 12.7 mph 17.3 mph N/A   Clear
11:35 PM 78.8 °F - 69.8 °F 74% 30.01 in 10.0 mi SW 12.7 mph - N/A   Clear
11:55 PM 78.8 °F - 68.0 °F 69% 30.01 in 10.0 mi SW 16.1 mph 20.7 mph N/A   Clear